Tracking 31027 objects as of 19-Jul-2025
HD Live streaming from Space Station
objects crossing your sky now

QIANFAN-75

Track QIANFAN-75 now!
10-day predictions
QIANFAN-75 is classified as:


NORAD ID: 63161
Int'l Code: 2025-046C
Perigee: 1,063.8 km
Apogee: 1,087.9 km
Inclination: 89.0 °
Period: 106.6 minutes
Semi major axis: 7446 km
RCS: Unknown
Launch date: March 11, 2025
Source: People's Republic of China (PRC)
Launch site: Wenchang Satellite Launch Center (WSC)
Your satellite tracking list
STARLINK-1243
Track 1 satellite(s)




NASA's NSSDC Master Catalog

Two Line Element Set (TLE):
1 63161U 25046C   25199.85394989  .00000112  00000-0  15541-3 0  9998
2 63161  88.9848 335.2716 0016165 184.6016 175.4990 13.50956182 27516
Source of the keplerian elements: AFSPC